This demonstration page uses our WeatherBlox Daily Observations layout. Learn more.

39.92423, -83.80882

Hourly Observations for August 30, 2017

Temp ( °F °C ) Dew Point ( °F °C ) Humidity (%) Winds ( mph kmh ) Pressure ( in mb ) Visibility ( mi km ) Precip ( " mm )
12:17 am 00:17 Clear with Mist and Fog 61 16 61 16 100 100 SSW 3 6 30.03 1017 2 3.21868 0 0
12:35 am 00:35 Clear with Mist and Fog 61 16 61 16 100 100 W 3 6 30.03 1017 1 1.60934 0 0
12:44 am 00:44 Clear with Mist and Fog 59 15 59 15 100 100 W 5 7 30.03 1017 2.5 4.02335 0 0
12:51 am 00:51 Clear with Mist and Fog 59 15 59 15 100 100 W 5 7 30.03 1017 6 9.65604 0 0
12:56 am 00:56 Clear with Mist and Fog 59 15 58 14.4 96 96 WSW 5 7 30.02 1017 5 8.0467 0 0
1:10 am 01:10 Clear with Mist and Fog 61 16 59 15 94 94 SW 6 9 30.03 1017 2 3.21868 0 0
1:30 am 01:30 Clear with Mist and Fog 59 15 59 15 100 100 WSW 3 6 30.03 1017 1 1.60934 0 0
1:37 am 01:37 Mostly Clear with Fog 59 15 59 15 100 100 WSW 3 6 30.03 1017 0.5 0.80467 0 0
1:56 am 01:56 Mostly Clear with Mist and Fog 60 15.6 59 15 96 96 WSW 3 6 30.01 1016 0.75 1.207005 0 0
2:06 am 02:06 Clear with Fog 57 14 57 14 100 100 W 3 6 30.03 1017 0.5 0.80467 0 0
2:16 am 02:16 Clear with Mist and Fog 57 14 57 14 100 100 Calm 30 1016 1 1.60934 0 0
2:19 am 02:19 Clear with Mist and Fog 57 14 57 14 100 100 Calm 30 1016 2.5 4.02335 0 0
2:28 am 02:28 Clear with Mist and Fog 59 15 57 14 94 94 Calm 30 1016 1 1.60934 0 0
2:35 am 02:35 Clear with Mist and Fog 59 15 59 15 100 100 Calm 30 1016 0.75 1.207005 0 0
2:37 am 02:37 Mostly Cloudy with Mist and Fog 59 15 59 15 100 100 Calm 30 1016 1 1.60934 0 0
2:39 am 02:39 Mostly Clear with Mist and Fog 59 15 59 15 100 100 Calm 30 1016 2 3.21868 0 0
2:49 am 02:49 Partly Cloudy with Mist and Fog 57 14 57 14 100 100 NNW 3 6 30 1016 1.75 2.816345 0 0
2:53 am 02:53 Mostly Clear with Mist and Fog 59 15 57 14 94 94 NW 5 7 30 1016 3 4.82802 0 0
2:56 am 02:56 Partly Cloudy with Mist and Fog 58 14.4 58 14.4 100 100 NW 5 7 30 1016 1.25 2.011675 0 0
3:03 am 03:03 Mostly Cloudy with Mist and Fog 57 14 57 14 100 100 NW 5 7 30 1016 0.75 1.207005 0 0
3:07 am 03:07 Partly Cloudy with Mist and Fog 57 14 57 14 100 100 NW 3 6 30 1016 2.5 4.02335 0 0
3:14 am 03:14 Mostly Clear with Mist and Fog 57 14 57 14 100 100 N 3 6 30 1016 4 6.43736 0 0
3:33 am 03:33 Clear with Mist and Fog 57 14 57 14 100 100 Calm 30 1016 2 3.21868 0 0
3:41 am 03:41 Mostly Cloudy with Mist and Fog 57 14 57 14 100 100 NNW 3 6 30 1016 1 1.60934 0 0
3:43 am 03:43 Mostly Cloudy with Fog 57 14 57 14 100 100 NNW 5 7 30 1016 0.5 0.80467 0 0
3:51 am 03:51 Mostly Cloudy with Fog 57 14 57 14 100 100 NNW 6 9 30 1016 0.25 0.402335 0 0
3:56 am 03:56 Mostly Cloudy with Fog 58 14.4 58 14.4 100 100 NNW 5 7 30 1016 0.25 0.402335 0 0
4:08 am 04:08 Mostly Cloudy with Fog 57 14 57 14 100 100 NNW 3 6 30 1016 0.5 0.80467 0 0
4:17 am 04:17 Cloudy with Fog 57 14 57 14 100 100 NNW 3 6 30 1016 0.25 0.402335 0 0
4:32 am 04:32 Mostly Cloudy with Mist and Fog 57 14 57 14 100 100 Calm 30 1016 0.75 1.207005 0 0
4:41 am 04:41 Mostly Cloudy with Fog 57 14 57 14 100 100 Calm 30 1016 0.25 0.402335 0 0
4:56 am 04:56 Cloudy with Fog 58 14.4 57 13.9 97 97 Calm 30.01 1016 0.25 0.402335 0 0
5:56 am 05:56 Cloudy with Fog 58 14.4 58 14.4 100 100 Calm 30.03 1017 0.25 0.402335 0 0
6:56 am 06:56 Cloudy with Fog 58 14.4 58 14.4 100 100 N 3 6 30.04 1017 5 8.0467 0 0
7:56 am 07:56 Cloudy with Fog 59 15 59 15 100 100 Calm 30.06 1018 5 8.0467 0 0
8:49 am 08:49 Cloudy with Mist and Fog 61 16 61 16 100 100 NW 3 6 30.09 1019 1.25 2.011675 0 0
8:56 am 08:56 Cloudy with Mist and Fog 61 16.1 61 16.1 100 100 NW 3 6 30.07 1018 1.5 2.41401 0 0
9:01 am 09:01 Cloudy with Mist and Fog 61 16 61 16 100 100 NNW 3 6 30.09 1019 0.75 1.207005 0 0
9:10 am 09:10 Cloudy with Fog 63 17 63 17 100 100 NNW 3 6 30.09 1019 0.5 0.80467 0 0
9:30 am 09:30 Cloudy with Mist and Fog 63 17 63 17 100 100 NW 5 7 30.09 1019 1 1.60934 0 0
9:34 am 09:34 Cloudy with Mist and Fog 64 18 64 18 100 100 WNW 6 9 30.09 1019 2 3.21868 0 0
9:42 am 09:42 Mostly Cloudy with Mist and Fog 64 18 64 18 100 100 NNW 5 7 30.09 1019 5 8.0467 0 0
9:56 am 09:56 Partly Cloudy 66 18.9 65 18.3 96 96 N 7 11 30.08 1019 9 14.48406 0 0
10:48 am 10:48 Mostly Cloudy 70 21 64 18 83 83 NNW 5 7 30.06 1018 10 16.0934 0 0
10:56 am 10:56 Mostly Cloudy 70 21.1 65 18.3 84 84 NNW 5 7 30.08 1019 10 16.0934 0 0
11:08 am 11:08 Mostly Cloudy 72 22 64 18 78 78 N 6 9 30.06 1018 10 16.0934 0 0
11:35 am 11:35 Mostly Sunny 73 23 63 17 69 69 N 9 15 30.06 1018 10 16.0934 0 0
11:56 am 11:56 Partly Cloudy 74 23.3 63 17.2 69 69 N 6 9 30.08 1019 10 16.0934 0 0
12:06 pm 12:06 Mostly Cloudy 73 23 63 17 69 69 N 9 15 30.06 1018 10 16.0934 0 0
12:40 pm 12:40 Partly Cloudy 75 24 61 16 61 61 N 3 6 30.06 1018 10 16.0934 0 0
12:56 pm 12:56 Mostly Sunny 76 24.4 61 16.1 60 60 N 8 13 30.07 1018 10 16.0934 0 0
1:56 pm 13:56 Mostly Sunny 75 23.9 60 15.6 60 60 VRB 6 9 30.06 1018 10 16.0934 0 0
2:56 pm 14:56 Mostly Sunny 77 25 61 16.1 58 58 WSW 5 7 30.04 1017 10 16.0934 0 0
3:56 pm 15:56 Mostly Sunny 77 25 60 15.6 56 56 VRB 3 6 30.04 1017 10 16.0934 0 0
4:56 pm 16:56 Mostly Sunny 78 25.6 61 16.1 56 56 NNW 6 9 30.03 1017 10 16.0934 0 0
5:56 pm 17:56 Mostly Cloudy 77 25 61 16.1 58 58 NW 5 7 30.03 1017 10 16.0934 0 0
6:56 pm 18:56 Mostly Sunny 75 23.9 61 16.1 62 62 N 6 9 30.04 1017 10 16.0934 0 0
7:56 pm 19:56 Cloudy 74 23.3 62 16.7 67 67 N 3 6 30.04 1017 10 16.0934 0 0
8:56 pm 20:56 Cloudy 68 20 64 17.8 87 87 Calm 30.05 1018 10 16.0934 0 0
9:56 pm 21:56 Mostly Cloudy 66 18.9 64 17.8 93 93 Calm 30.06 1018 10 16.0934 0 0
10:56 pm 22:56 Mostly Cloudy 65 18.3 63 17.2 93 93 Calm 30.05 1018 10 16.0934 0 0
11:56 pm 23:56 Clear 64 17.8 62 16.7 93 93 Calm 30.04 1017 10 16.0934 0 0

Powered by AerisWeather